Bridgeport, CT

1:06 PM EDT on April 27, 2017 (GMT -0400)
Sikorsky Memorial

Weather History for KBDR - July, 2013

Change the Weather History Date:

Monday, July 15, 2013

  Actual Average Record
Temperature  
Mean Temperature 85 °F 74 °F  
Max Temperature 94 °F 83 °F 97 °F (1995)
Min Temperature 76 °F 67 °F 57 °F (1950)
Degree Days  
Heating Degree Days 0 0  
Month to date heating degree days 0 0  
Since 1 June heating degree days 18 32  
Since 1 July heating degree days 0 0  
Cooling Degree Days 20 10  
Month to date cooling degree days 219 132  
Year to date cooling degree days 432 299  
Since 1 June cooling degree days 394 275  
Growing Degree Days 34 (Base 50)    
Moisture  
Dew Point 71 °F    
Average Humidity 66    
Maximum Humidity 87    
Minimum Humidity 44    
Precipitation  
Precipitation 0.00 in 0.12 in 2.05 in (1961)
Month to date precipitation 0.64 1.51  
Year to date precipitation 23.72 22.99  
Snow  
Snow 0.00 in 0.00 in 0.00 in (2002)
Month to date snowfall 0.0 0.0  
Since 1 July snowfall 0.0 0.0  
Snow Depth 0.00 in    
Sea Level Pressure  
Sea Level Pressure 30.18 in    
Wind  
Wind Speed 6 mph (WNW)    
Max Wind Speed 17 mph    
Max Gust Speed 23 mph    
Visibility 10 miles    
Events      
T = Trace of Precipitation, MM = Missing Value Source: NWS Daily Summary

Daily Weather History Graph

Daily Weather History Graph

Search for Another Location

Airport or City:

Trip Planner

Search our weather history database for the weather conditions in past years. The results will help you decide how hot, cold, wet, or windy it might be!

Date:

Astronomy

Jul. 15, 2013 Rise Set
Actual Time 5:33 AM EDT 8:23 PM EDT
Civil Twilight 5:00 AM EDT 8:56 PM EDT
Nautical Twilight 4:19 AM EDT 9:37 PM EDT
Astronomical Twilight 3:31 AM EDT 10:24 PM EDT
Moon 12:54 PM EDT (7/15) No Moon Set
Length of Visible Light 15h 55m
Length of Day
14h 50m
Waxing Crescent, 45% of the Moon is Illuminated
Jul 15
Waxing Crescent
Jul 15
First Quarter
Jul 22
Full
Jul 29
Last Quarter
Aug 6
New

Hourly Weather History & Observations

Time (EDT) Temp. Heat Index Dew Point Humidity Pressure Visibility Wind Dir Wind Speed Gust Speed Precip Events Conditions
12:52 AM 78.1 °F - 73.0 °F 84% 30.22 in 10.0 mi Calm Calm - N/A   Scattered Clouds
1:52 AM 75.9 °F - 72.0 °F 87% 30.21 in 10.0 mi Calm Calm - N/A   Clear
2:52 AM 77.0 °F - 72.0 °F 84% 30.21 in 10.0 mi SSW 6.9 mph - N/A   Clear
3:52 AM 77.0 °F - 72.0 °F 84% 30.21 in 10.0 mi SW 5.8 mph - N/A   Clear
4:52 AM 75.9 °F - 72.0 °F 87% 30.21 in 10.0 mi SW 6.9 mph - N/A   Mostly Cloudy
5:52 AM 77.0 °F - 72.0 °F 84% 30.22 in 10.0 mi WSW 5.8 mph - N/A   Scattered Clouds
6:52 AM 79.0 °F - 73.0 °F 82% 30.22 in 10.0 mi Calm Calm - N/A   Mostly Cloudy
7:52 AM 82.9 °F 88.0 °F 72.0 °F 69% 30.22 in 10.0 mi Calm Calm - N/A   Partly Cloudy
8:52 AM 82.9 °F 88.0 °F 72.0 °F 69% 30.22 in 10.0 mi SW 5.8 mph - N/A   Clear
9:52 AM 84.0 °F 90.2 °F 73.0 °F 69% 30.21 in 10.0 mi SSW 6.9 mph - N/A   Mostly Cloudy
10:52 AM 90.0 °F 97.9 °F 73.0 °F 57% 30.19 in 10.0 mi NW 9.2 mph - N/A   Mostly Cloudy
11:52 AM 91.9 °F 99.5 °F 72.0 °F 52% 30.19 in 10.0 mi NW 6.9 mph - N/A   Partly Cloudy
12:52 PM 93.0 °F 100.1 °F 71.1 °F 49% 30.18 in 10.0 mi NW 12.7 mph - N/A   Clear
1:52 PM 93.0 °F 99.0 °F 70.0 °F 47% 30.17 in 10.0 mi NNW 12.7 mph - N/A   Partly Cloudy
2:52 PM 93.0 °F 99.0 °F 70.0 °F 47% 30.15 in 10.0 mi NNW 12.7 mph - N/A   Clear
3:52 PM 93.0 °F 97.9 °F 69.1 °F 45% 30.14 in 10.0 mi NNW 12.7 mph - N/A   Clear
4:52 PM 93.9 °F 98.6 °F 68.0 °F 43% 30.14 in 10.0 mi North 11.5 mph - N/A   Clear
5:52 PM 91.0 °F 93.8 °F 66.0 °F 44% 30.13 in 10.0 mi NNW 10.4 mph - N/A   Clear
6:52 PM 90.0 °F 94.5 °F 69.1 °F 50% 30.13 in 10.0 mi NNW 6.9 mph - N/A   Clear
7:52 PM 89.1 °F 93.7 °F 69.1 °F 52% 30.13 in 10.0 mi NW 3.5 mph - N/A   Clear
8:52 PM 86.0 °F 90.7 °F 70.0 °F 59% 30.13 in 10.0 mi NNW 3.5 mph - N/A   Clear
9:52 PM 84.0 °F 88.4 °F 70.0 °F 63% 30.14 in 10.0 mi NW 3.5 mph - N/A   Clear
10:52 PM 80.1 °F 83.8 °F 72.0 °F 76% 30.15 in 10.0 mi Calm Calm - N/A   Clear
11:52 PM 82.0 °F 86.3 °F 71.1 °F 69% 30.14 in 10.0 mi Calm Calm - N/A   Clear